This is the latest recevied weather packets stored in our database for station/object N8SDR. If no packets are shown the sender has not sent any weather packets the latest 10 day(s).
| Time | Temp. | Humidity | Pressure | Rain* | Wind** | Luminosity | Snow |
|---|---|---|---|---|---|---|---|
| 1778027798 | 15.56° C | 99% | 1003.9 hPa | 0 mm | - | 0 W/m² | - |
| 1778027494 | 15.56° C | 99% | 1003.8 hPa | 0 mm | - | 0 W/m² | - |
| 1778027190 | 15.56° C | 99% | 1003.7 hPa | 0 mm | - | 0 W/m² | - |
| 1778026886 | 15.56° C | 99% | 1003.4 hPa | 1.78 mm | - | 0 W/m² | - |
| 1778026582 | 15.56° C | 99% | 1003.3 hPa | 1.78 mm | - | 0 W/m² | - |
| 1778026280 | 15.56° C | 99% | 1003.3 hPa | 1.27 mm | - | 1 W/m² | - |
| 1778025977 | 15.56° C | 99% | 1003.4 hPa | 1.78 mm | - | 2 W/m² | - |
| 1778025674 | 15.56° C | 99% | 1003.2 hPa | 4.83 mm | - | 3 W/m² | - |
| 1778025372 | 15.56° C | 99% | 1003.4 hPa | 1.27 mm | - | 4 W/m² | - |
| 1778025069 | 16.11° C | 99% | 1003.5 hPa | 0 mm | - | 4 W/m² | - |
| 1778024766 | 16.11° C | 99% | 1003.5 hPa | 0 mm | - | 3 W/m² | - |
| 1778024462 | 16.11° C | 99% | 1003.4 hPa | 1.78 mm | - | 5 W/m² | - |
| 1778024160 | 16.11° C | 99% | 1003.7 hPa | 3.05 mm | - | 4 W/m² | - |
| 1778023857 | 16.11° C | 99% | 1003.5 hPa | 3.05 mm | - | 12 W/m² | - |
| 1778023555 | 16.11° C | 99% | 1003.4 hPa | 3.05 mm | - | 21 W/m² | - |
| 1778023253 | 16.11° C | 99% | 1003.8 hPa | 1.27 mm | - | 11 W/m² | - |
| 1778022949 | 16.11° C | 99% | 1003.7 hPa | 0 mm | - | 20 W/m² | - |
| 1778022648 | 16.11° C | 99% | 1003.6 hPa | 1.78 mm | - | 12 W/m² | - |
| 1778022345 | 16.11° C | 99% | 1003.9 hPa | 3.05 mm | - | 17 W/m² | - |
| 1778022041 | 16.11° C | 99% | 1003.9 hPa | 1.27 mm | - | 23 W/m² | - |
| 1778021738 | 16.11° C | 99% | 1003.9 hPa | 0 mm | - | 28 W/m² | - |
| 1778021434 | 16.11° C | 99% | 1003.7 hPa | 0 mm | - | 29 W/m² | - |
| 1778021131 | 16.11° C | 99% | 1004.1 hPa | 0 mm | - | 24 W/m² | - |
| 1778020829 | 16.11° C | 99% | 1004 hPa | 0 mm | - | 33 W/m² | - |
| 1778020526 | 16.11° C | 99% | 1004 hPa | 1.78 mm | - | 45 W/m² | - |
* Rain latest hour (hover to see other rain measurements)
** Current wind speed in m/s (hover to see current wind gust speed)